Back to catalog

STARLINK-36038

AliveCommunicationsVLEO
NORAD 66804·PAYLOAD·🇺🇸 United States

Launched Dec 1, 2025 from Cape Canaveral Space Force Station

Loading…

Next Passes (next 24 hours)

TLE

FreshSource: CelesTrak SupGP

Epoch: Sep 15, 2026, 02:34 UTC

1 66804C 25278P   26258.10743056  .00065051  00000+0  23557-2 0  2585
2 66804  42.9994 124.4621 0001493 272.2812 323.0217 15.27551871    15

Track STARLINK-36038 in real time with AllMySat

Download on the App Store